Temperature
20 18 18 19 19 20 19 19 19 19 20 19 18 18 18 18 18 18 18 19 19 20 20 20 19 19 19 19 18 18 18 17 17 17 17 17 16 16 16 16 16 16 16 15
18 19 19 20 20 20 20 19 19 19 19 19 18 18 18 18 18 18 18 19 19 19 20 19 19 19 19 19 18 18 18 17 17 17 17 17 16 16 16 16 16 15 15 15
19 19 20 20 20 20 20 19 19 19 19 19 19 18 18 18 18 18 19 19 19 19 19 19 19 19 19 19 18 18 18 17 17 17 16 16 16 16 16 16 15 15 15 15
19 20 20 20 20 20 19 20 20 19 18 17 18 17 17 17 17 17 18 18 19 19 19 19 19 19 19 19 18 18 18 17 17 16 16 16 16 16 16 16 15 15 15 15
19 20 20 20 20 20 20 19 19 19 18 17 17 17 17 16 17 17 17 18 18 19 19 19 19 19 19 19 18 18 17 17 17 16 16 16 16 16 16 15 15 15 15 15
19 20 20 20 20 20 19 18 17 16 16 17 18 17 17 16 17 17 17 17 18 18 19 19 19 19 19 18 18 18 17 17 17 16 16 16 16 16 15 15 15 15 15 15
19 19 20 20 20 19 18 17 16 17 16 16 17 17 16 17 17 17 16 17 18 18 18 19 19 18 18 18 18 17 17 17 16 16 16 16 16 15 15 15 15 15 15 15
18 18 19 20 20 19 18 17 16 17 16 16 16 16 17 17 17 17 17 17 18 18 18 18 18 18 18 18 17 17 17 17 16 16 16 16 15 15 15 15 15 15 15 14
17 18 19 20 20 19 18 16 16 15 16 16 16 16 17 17 16 16 17 17 17 18 18 18 18 18 18 18 17 17 17 17 16 16 16 16 15 15 15 15 15 15 14 14
17 18 19 19 19 18 18 16 14 15 16 16 16 16 16 16 16 16 16 16 17 18 18 18 18 18 18 17 17 17 17 16 16 16 16 16 15 15 15 15 15 14 14 14
17 17 18 18 18 18 17 16 15 14 14 15 16 16 16 16 16 15 15 16 17 18 18 18 18 17 17 17 17 17 16 16 16 16 16 15 15 15 15 15 15 14 14 14
16 15 16 17 18 18 18 17 15 16 15 14 14 15 16 15 15 15 16 17 17 17 17 17 17 17 17 17 16 16 16 16 16 15 15 15 15 15 15 14 14 14 14 14
15 15 16 16 16 17 17 16 15 14 13 12 14 15 16 15 15 15 16 16 17 17 17 17 17 17 17 16 16 16 16 15 15 15 15 15 15 15 14 14 14 14 14 14
15 14 15 16 16 16 16 17 15 14 14 13 14 15 15 15 14 15 15 16 16 16 16 16 16 16 16 16 16 16 15 15 15 15 15 15 15 14 14 14 14 14 14 14
14 15 15 15 16 16 16 16 15 15 14 14 15 14 15 15 14 15 15 15 15 16 16 16 16 16 16 15 15 15 15 15 15 15 15 15 14 14 14 14 14 14 13 13
13 14 15 15 16 15 15 15 15 15 15 14 14 14 14 14 14 14 15 15 15 15 15 15 16 15 15 15 15 15 15 15 15 15 14 14 14 14 14 14 13 13 13 13
12 13 14 14 14 15 15 15 15 15 15 14 14 14 13 13 13 14 15 15 15 15 15 15 15 15 15 15 15 15 15 15 14 14 14 14 14 14 14 13 13 13 13 13
12 12 11 12 14 15 15 15 15 15 14 14 14 13 13 13 14 14 15 15 15 15 15 15 14 15 15 14 14 14 14 14 14 14 14 14 14 13 13 13 13 13 13 12
11 11 11 11 13 13 14 14 14 14 14 14 13 13 13 13 13 13 14 15 15 14 14 14 14 14 14 14 14 14 14 14 14 13 13 13 13 13 13 13 13 12 12 12
10 10 11 10 13 13 14 15 15 15 14 14 13 12 12 13 11 12 14 14 14 14 14 14 14 14 14 14 13 13 13 13 13 13 13 13 13 12 12 12 12 12 12 12
11 10 10 10 12 12 13 14 14 14 14 14 13 13 13 12 13 14 14 14 14 14 14 13 13 13 13 13 13 13 13 13 13 12 12 12 12 12 12 12 12 12 11 11
11 10 10 9 11 12 13 13 13 13 14 14 14 14 13 14 14 14 14 13 13 13 13 13 13 13 13 13 12 12 12 12 12 12 12 12 12 12 12 12 11 11 11 11
10 11 10 10 12 12 13 14 14 15 14 14 14 14 14 13 13 13 13 13 13 13 13 12 12 12 12 12 12 12 12 12 11 11 11 11 11 11 11 11 11 11 10 10
10 10 9 9 10 12 13 14 14 14 14 14 14 14 13 13 13 13 12 12 12 12 12 12 12 12 11 11 11 11 11 11 11 11 11 11 11 10 10 10 10 10 10 10
10 9 9 9 10 11 13 14 14 14 14 14 14 13 13 13 13 12 12 12 12 12 11 11 11 11 11 11 11 11 11 10 10 10 10 10 10 10 10 10 10 10 10 9
8 9 10 10 11 11 12 13 13 13 13 13 13 13 12 12 12 12 11 11 11 11 11 11 11 11 10 10 10 10 10 10 10 10 10 10 10 10 9 9 9 9 9 9
Wind_Speed
3 4 2 5 6 4 3 3 3 4 2 2 4 6 6 4 5 6 5 5 6 7 5 2 3 4 4 4 5 4 4 3 3 2 2 2 1 1 1 1 2 3 3 4
4 2 5 4 4 3 3 2 2 3 1 2 3 5 5 4 7 7 8 8 7 6 3 2 3 4 5 5 5 4 4 4 4 2 2 2 2 1 1 1 2 3 3 4
4 5 2 2 1 2 2 4 4 3 2 2 2 5 4 3 3 4 5 6 6 7 6 4 4 5 5 5 5 6 5 4 4 3 3 3 3 3 2 2 1 1 2 3
3 3 1 2 2 4 4 3 4 2 1 3 1 3 6 3 3 2 4 5 6 6 5 5 5 5 6 5 5 5 5 4 4 4 4 4 3 2 1 1 0 1 1 2
3 2 1 2 3 5 4 1 2 1 3 1 1 1 7 2 3 4 5 5 5 5 6 6 6 7 5 4 5 4 4 4 4 4 5 4 3 2 1 1 1 1 1 1
4 3 3 4 1 3 4 5 5 5 4 1 3 3 5 3 5 4 3 4 4 4 5 5 4 4 4 4 4 4 5 3 3 4 4 5 4 3 2 1 1 0 1 1
4 4 2 2 2 2 5 5 4 4 3 4 2 2 6 5 4 4 4 4 3 3 3 4 4 4 4 5 4 4 5 4 3 4 4 4 4 4 4 3 3 2 1 1
1 5 3 1 4 4 3 7 6 3 3 4 2 3 5 4 3 2 1 1 1 3 3 4 4 4 5 5 5 5 5 4 4 4 4 4 4 4 3 4 3 3 3 3
5 5 4 1 2 7 5 3 5 6 2 2 4 5 5 4 5 4 3 2 1 2 2 3 3 3 4 5 5 6 6 5 5 4 4 4 4 4 4 3 3 2 2 2
6 3 4 2 4 3 4 7 5 4 3 3 5 3 4 4 4 3 2 1 2 1 1 2 2 3 3 4 4 3 4 4 4 4 4 3 4 4 4 3 3 3 2 2
4 4 3 2 2 3 3 4 4 4 4 5 3 5 3 5 4 3 3 2 2 2 2 2 2 3 2 2 3 3 2 2 3 3 3 3 3 3 3 3 4 3 2 2
3 4 2 4 3 2 3 5 6 4 3 4 3 5 3 3 3 2 2 2 1 1 1 1 2 2 2 2 2 2 2 3 3 3 3 3 3 3 3 4 3 3 3 3
4 5 1 4 4 2 1 2 4 5 5 5 4 5 2 2 1 0 0 1 1 1 2 2 1 2 2 2 2 2 2 3 2 2 2 2 2 3 4 4 3 3 3 3
4 4 5 7 6 3 2 2 4 5 4 5 7 6 5 3 2 2 1 1 1 1 1 2 1 0 0 1 1 2 2 2 2 2 2 3 3 3 4 4 3 3 3 3
4 3 3 4 3 3 3 4 5 6 7 7 7 7 8 6 4 3 1 1 1 1 1 1 0 0 0 0 1 2 2 2 2 2 3 4 3 3 3 3 3 3 3 3
3 3 2 1 1 2 3 5 6 6 5 6 4 6 6 3 1 1 1 1 1 0 0 0 0 0 1 2 2 2 2 2 2 2 4 3 2 2 3 3 3 3 3 3
2 4 3 3 3 2 5 6 6 5 5 6 7 7 2 1 2 2 2 3 3 1 0 0 0 1 2 3 3 3 3 2 2 3 3 2 2 3 3 3 2 3 4 3
5 4 3 1 1 5 6 3 4 4 3 4 4 3 4 3 1 0 1 2 1 1 1 1 1 2 2 2 2 2 1 1 2 3 3 3 2 3 3 3 3 4 3 4
4 6 4 3 3 6 6 3 3 4 4 3 4 3 1 3 3 3 2 1 2 2 1 1 1 1 1 2 2 1 1 1 1 3 4 4 3 3 3 4 5 4 4 4
4 4 5 4 4 6 6 3 1 3 4 3 4 4 4 4 2 3 2 0 1 0 0 1 1 2 2 3 2 1 1 1 3 4 4 3 3 4 5 6 5 4 4 4
3 3 4 4 5 7 6 3 3 4 6 2 4 5 5 4 4 3 1 0 0 0 1 1 1 2 2 2 2 2 2 3 5 4 3 2 3 4 4 4 3 3 4 3
7 6 5 5 4 7 3 4 5 6 2 3 4 4 4 3 2 1 1 0 1 1 2 2 1 2 3 2 2 2 4 5 4 2 2 3 3 3 3 2 3 3 3 3
7 8 6 8 7 4 2 4 3 3 3 3 4 4 4 3 2 1 1 0 1 1 1 1 1 2 3 3 2 3 5 4 3 2 3 3 3 3 2 2 2 2 2 3
4 2 4 3 5 4 4 3 2 2 3 3 4 4 4 3 3 2 1 1 1 1 1 1 2 2 4 4 3 3 4 4 3 3 3 3 3 3 2 2 2 2 3 3
5 4 3 4 5 4 4 4 3 2 2 2 2 3 4 4 3 2 2 2 2 1 2 1 1 2 4 4 4 4 4 3 3 3 3 3 3 3 3 3 3 4 4 5
5 7 7 7 7 6 5 4 3 3 2 3 3 2 2 3 3 2 2 2 2 2 1 2 3 3 4 4 5 4 3 2 2 3 4 3 3 2 2 3 4 4 4 6
Wind_Direction
43 77 196 215 198 195 189 197 247 267 253 164 225 253 261 222 205 220 225 223 224 233 243 215 189 171 153 148 152 161 153 143 127 117 115 109 101 61 53 74 94 113 116 122
44 267 237 207 192 193 187 204 254 294 304 174 255 273 265 221 213 215 217 220 218 223 233 202 177 163 164 167 167 166 166 157 154 149 137 127 122 106 89 50 64 92 112 119
191 246 245 166 159 173 215 201 218 230 359 34 17 320 293 277 236 224 221 219 215 209 207 202 185 184 175 178 181 179 179 167 155 132 104 85 67 53 43 34 23 26 104 120
233 266 173 154 205 168 242 230 195 172 102 294 65 288 287 290 309 267 249 231 223 216 204 195 187 188 192 192 180 176 171 160 149 141 137 135 143 163 204 194 211 20 78 117
253 232 185 212 231 185 209 74 113 134 148 348 354 207 290 335 297 274 260 240 230 218 202 198 196 196 191 176 168 166 152 148 148 151 150 146 150 171 148 114 99 43 18 54
251 249 204 208 180 148 131 72 56 50 75 303 251 191 286 270 254 273 268 243 224 213 203 201 196 181 174 162 156 152 149 157 155 155 155 161 165 163 149 155 161 263 324 322
319 310 289 163 109 51 85 86 30 3 8 261 272 201 257 271 259 235 246 247 225 194 184 189 181 178 177 169 167 163 157 166 164 165 172 178 180 178 182 189 196 203 227 249
219 286 270 203 172 169 149 139 154 199 236 285 327 241 257 290 301 276 227 211 175 165 180 184 183 182 179 173 170 165 167 176 176 179 189 187 185 187 194 196 198 207 218 228
185 254 293 255 145 136 132 154 163 140 165 277 288 291 312 359 7 17 37 64 133 188 183 178 179 174 173 173 181 181 179 183 187 191 192 194 196 194 197 201 202 214 231 230
161 231 293 306 77 54 135 141 105 126 158 253 293 287 273 301 313 333 348 325 277 254 203 176 177 178 176 179 179 167 171 190 193 188 193 203 212 208 199 190 204 220 232 236
144 166 306 24 150 185 103 108 116 124 154 167 248 272 233 234 245 250 270 273 265 239 211 194 185 181 167 158 162 165 174 193 201 201 200 201 216 209 201 202 213 216 221 220
140 136 228 265 276 220 168 164 148 157 212 182 184 260 282 251 248 224 259 295 302 262 203 167 168 156 150 158 180 188 192 208 217 209 194 206 212 203 206 217 225 219 222 222
136 121 87 339 333 359 110 152 151 135 129 161 179 252 312 354 331 275 252 324 4 35 56 73 107 143 172 186 207 209 205 218 219 199 193 205 209 211 219 224 227 222 223 228
120 120 168 202 221 211 240 202 158 141 164 202 218 237 285 301 299 319 352 360 38 62 85 84 76 74 228 219 236 246 246 224 205 192 198 215 223 227 228 227 225 227 220 213
104 144 199 227 228 194 216 224 195 191 196 197 224 222 244 244 236 240 234 75 63 39 60 100 89 1 331 284 275 272 265 243 207 192 213 229 229 230 235 229 226 226 223 224
91 146 157 271 235 209 245 248 222 216 210 211 222 248 244 235 181 178 188 151 159 233 278 25 50 17 290 265 263 275 272 261 211 206 228 237 225 220 229 228 223 222 227 227
124 130 131 248 300 358 270 242 214 211 212 194 216 237 214 167 191 198 203 185 194 216 181 25 271 260 259 259 246 246 250 251 226 232 243 244 233 234 239 237 223 229 229 220
147 131 138 159 85 231 244 253 199 203 235 209 210 229 199 197 179 99 214 185 204 231 251 303 305 302 302 298 291 281 282 240 235 245 256 255 239 244 246 234 236 236 230 221
164 142 129 142 206 271 291 267 189 194 259 223 196 199 164 134 64 354 307 193 199 211 228 252 271 288 323 317 317 321 325 304 271 267 264 259 248 245 240 239 241 236 227 228
82 110 126 142 182 236 250 272 218 130 268 247 178 175 161 123 114 268 288 238 216 225 349 327 338 8 351 334 350 7 324 315 274 268 269 261 251 249 246 244 244 237 228 232
104 97 146 170 211 256 256 264 121 163 240 222 169 169 160 174 197 211 208 338 256 15 11 20 17 356 327 329 1 356 327 288 278 278 281 269 255 252 252 250 244 233 229 231
172 167 179 158 196 251 254 135 171 211 208 154 165 169 162 174 182 178 149 104 15 19 17 32 19 333 327 337 359 331 307 300 304 301 293 282 273 271 282 264 259 241 225 228
196 189 183 187 211 242 223 206 224 166 166 178 170 176 160 158 184 202 205 261 335 348 351 7 7 335 332 334 330 306 304 317 322 315 294 288 287 280 275 255 250 248 231 236
247 156 151 222 257 258 263 259 254 198 192 187 168 165 161 175 193 202 221 249 308 315 325 344 356 337 323 322 320 302 307 323 329 321 307 299 293 294 294 277 241 227 227 237
213 170 177 234 260 288 278 247 225 194 168 148 156 168 176 172 194 198 203 222 236 268 297 311 305 300 302 311 313 310 312 322 322 317 314 308 291 283 285 285 265 245 235 231
201 184 187 222 217 200 236 236 201 178 202 186 166 162 171 174 189 198 212 223 229 256 281 302 304 300 300 306 304 305 307 305 304 315 313 308 300 291 285 290 302 287 270 263
Height
1503 1509 1513 1511 1511 1512 1514 1518 1519 1515 1510 1513 1515 1514 1511 1509 1510 1511 1511 1512 1513 1514 1515 1517 1518 1520 1522 1524 1525 1526 1527 1528 1529 1529 1530 1530 1531 1531 1531 1531 1531 1531 1531 1531
1509 1511 1506 1505 1507 1510 1513 1517 1517 1514 1509 1512 1515 1514 1509 1508 1508 1508 1509 1510 1511 1512 1514 1515 1517 1519 1521 1522 1524 1525 1526 1527 1528 1529 1529 1530 1530 1531 1531 1531 1531 1531 1531 1530
1509 1507 1502 1504 1507 1511 1512 1515 1515 1515 1512 1512 1515 1517 1511 1507 1506 1507 1507 1508 1509 1510 1512 1514 1515 1517 1519 1521 1523 1524 1525 1526 1527 1528 1529 1530 1530 1530 1530 1531 1531 1531 1530 1530
1506 1502 1502 1505 1507 1508 1515 1508 1509 1513 1519 1524 1520 1531 1515 1509 1507 1506 1506 1506 1507 1508 1510 1512 1514 1516 1518 1520 1522 1523 1524 1526 1527 1527 1528 1528 1529 1529 1530 1530 1530 1530 1530 1530
1506 1502 1503 1505 1504 1505 1508 1506 1509 1512 1518 1525 1523 1529 1521 1511 1509 1506 1505 1505 1505 1506 1508 1510 1512 1514 1517 1519 1521 1522 1524 1525 1526 1527 1527 1527 1528 1528 1529 1529 1529 1529 1529 1529
1502 1500 1500 1501 1500 1502 1504 1510 1514 1520 1526 1534 1525 1529 1526 1516 1509 1505 1503 1503 1503 1505 1507 1509 1511 1514 1515 1517 1519 1521 1523 1524 1525 1526 1526 1527 1527 1527 1527 1528 1528 1528 1528 1528
1506 1501 1498 1498 1502 1504 1507 1520 1535 1536 1542 1538 1524 1526 1523 1508 1504 1503 1502 1501 1502 1503 1505 1507 1510 1512 1513 1515 1518 1520 1521 1523 1524 1525 1525 1526 1526 1526 1526 1526 1527 1526 1526 1526
1515 1514 1500 1498 1500 1506 1509 1517 1535 1543 1544 1538 1527 1527 1516 1505 1502 1501 1500 1500 1500 1502 1504 1506 1508 1510 1511 1513 1516 1518 1520 1521 1522 1523 1524 1524 1525 1525 1525 1525 1525 1525 1525 1525
1514 1513 1499 1496 1497 1501 1510 1516 1517 1531 1534 1538 1532 1522 1511 1504 1502 1501 1500 1500 1500 1501 1503 1505 1506 1508 1510 1511 1513 1516 1518 1519 1520 1521 1522 1523 1523 1523 1524 1524 1524 1524 1523 1523
1504 1510 1502 1498 1498 1501 1504 1512 1523 1530 1539 1543 1533 1527 1522 1510 1506 1503 1502 1501 1501 1501 1502 1504 1505 1507 1508 1510 1512 1514 1516 1517 1518 1519 1520 1521 1521 1522 1522 1522 1522 1522 1522 1521
1500 1509 1507 1503 1504 1506 1508 1513 1519 1528 1531 1539 1540 1531 1509 1507 1504 1503 1501 1501 1501 1501 1502 1503 1504 1505 1507 1509 1510 1512 1514 1515 1516 1517 1518 1518 1519 1519 1520 1520 1520 1520 1519 1519
1501 1509 1514 1507 1501 1500 1502 1507 1516 1525 1530 1533 1536 1529 1504 1503 1502 1501 1501 1500 1500 1501 1502 1502 1503 1504 1506 1507 1509 1510 1512 1513 1514 1515 1515 1516 1516 1517 1517 1517 1517 1517 1517 1516
1501 1509 1519 1516 1513 1506 1505 1506 1510 1516 1526 1534 1534 1524 1503 1502 1501 1500 1500 1500 1500 1501 1501 1501 1502 1503 1504 1506 1507 1509 1510 1511 1512 1513 1513 1513 1514 1514 1514 1514 1514 1514 1514 1513
1496 1507 1514 1517 1513 1508 1507 1506 1508 1514 1524 1528 1524 1516 1505 1502 1501 1500 1499 1499 1500 1500 1501 1501 1501 1502 1503 1505 1506 1507 1508 1509 1509 1510 1510 1511 1511 1511 1511 1511 1511 1511 1510 1510
1497 1506 1505 1505 1503 1503 1504 1504 1506 1509 1511 1516 1512 1510 1503 1500 1499 1499 1499 1499 1499 1500 1500 1500 1500 1501 1502 1503 1504 1505 1505 1506 1507 1507 1507 1507 1507 1508 1508 1507 1507 1507 1507 1506
1498 1504 1505 1505 1502 1503 1504 1502 1502 1504 1504 1506 1506 1505 1497 1497 1497 1497 1498 1498 1499 1499 1499 1499 1500 1500 1501 1501 1502 1502 1503 1503 1504 1504 1504 1504 1504 1504 1503 1503 1503 1503 1503 1502
1501 1504 1510 1512 1506 1503 1507 1500 1499 1499 1498 1500 1503 1499 1495 1496 1496 1496 1496 1497 1497 1498 1499 1499 1499 1499 1499 1500 1500 1499 1500 1500 1500 1500 1500 1500 1500 1500 1499 1499 1499 1499 1498 1498
1501 1505 1512 1514 1511 1514 1502 1493 1492 1494 1494 1494 1494 1493 1494 1494 1495 1496 1496 1496 1497 1497 1498 1498 1498 1498 1498 1498 1498 1497 1497 1497 1497 1497 1496 1496 1496 1496 1495 1495 1494 1494 1494 1494
1496 1503 1512 1517 1516 1510 1499 1492 1492 1494 1494 1491 1492 1492 1493 1493 1494 1495 1495 1496 1496 1496 1497 1497 1497 1497 1496 1496 1495 1495 1494 1494 1493 1493 1492 1492 1492 1491 1491 1490 1490 1489 1489 1489
1497 1499 1509 1515 1513 1512 1498 1489 1487 1492 1496 1489 1489 1490 1491 1493 1498 1497 1495 1495 1495 1495 1496 1496 1496 1495 1494 1493 1493 1492 1491 1490 1489 1489 1488 1488 1488 1487 1486 1486 1485 1485 1485 1484
1502 1505 1509 1512 1512 1504 1491 1487 1488 1499 1496 1487 1487 1488 1490 1491 1493 1494 1493 1493 1494 1494 1494 1494 1494 1493 1493 1492 1490 1489 1488 1487 1486 1485 1485 1484 1484 1483 1482 1481 1481 1480 1480 1480
1498 1504 1508 1511 1511 1504 1486 1486 1490 1489 1485 1485 1486 1487 1488 1490 1490 1491 1492 1492 1492 1492 1492 1492 1492 1491 1491 1490 1488 1487 1486 1484 1483 1482 1481 1480 1479 1479 1478 1477 1476 1476 1475 1475
1491 1491 1493 1496 1494 1486 1483 1483 1483 1483 1483 1484 1484 1486 1487 1488 1489 1490 1490 1491 1491 1491 1490 1490 1490 1489 1488 1487 1486 1484 1483 1482 1480 1479 1478 1476 1475 1475 1474 1473 1472 1471 1471 1470
1486 1485 1488 1490 1485 1482 1482 1481 1482 1482 1482 1483 1484 1485 1486 1487 1488 1488 1489 1489 1489 1489 1489 1488 1488 1487 1486 1485 1484 1482 1481 1479 1477 1476 1475 1473 1472 1470 1469 1468 1468 1467 1466 1466
1481 1483 1485 1485 1482 1481 1479 1479 1480 1480 1481 1482 1483 1484 1485 1485 1486 1486 1486 1487 1487 1487 1487 1486 1485 1484 1483 1482 1481 1480 1478 1476 1475 1473 1471 1470 1468 1466 1464 1464 1464 1463 1462 1462
1477 1478 1481 1479 1476 1477 1477 1477 1478 1478 1479 1480 1481 1482 1483 1483 1483 1484 1484 1484 1484 1484 1484 1484 1483 1482 1480 1479 1478 1477 1475 1474 1472 1469 1468 1466 1464 1463 1461 1460 1459 1458 1458 1457